Temp_Advection
nan nan nan nan nan nan nan nan nan nan nan nan nan nan nan nan nan nan nan nan nan nan nan nan nan nan nan nan nan nan nan nan nan nan nan nan nan nan nan nan nan nan nan nan nan nan nan nan nan
nan -0 -0 0 0 -0 -0 -0 0 -0 0 -0 -0 0 -0 -0 -0 0 0 0 0 -0 -0 -0 -0 -0 -0 -0 -0 -0 -0 -0 0 -0 0 0 0 0 0 0 -0 -0 -0 -0 -0 -0 0 0 nan
nan -0 -0 -0 0 0 -0 -0 -0 -0 0 0 -0 -0 -0 -0 -0 -0 -0 0 0 -0 -0 -0 -0 0 0 0 -0 -0 -0 -0 0 0 0 0 0 0 0 0 -0 -0 -0 -0 -0 0 0 0 nan
nan -0 -0 -0 -0 0 0 0 0 -0 -0 -0 0 -0 -0 0 -0 -0 -0 -0 0 0 0 0 0 -0 -0 -0 0 0 0 0 0 0 0 0 0 0 0 -0 -0 -0 -0 -0 -0 0 -0 -0 nan
nan -0 -0 -0 0 -0 -0 0 0 0 -0 0 -0 -0 -0 -0 0 -0 -0 0 0 -0 -0 -0 -0 -0 -0 -0 -0 -0 -0 0 0 0 0 0 0 0 0 0 0 0 0 -0 -0 -0 -0 -0 nan
nan -0 0 -0 -0 -0 -0 -0 -0 -0 -0 0 -0 -0 0 -0 -0 0 0 0 0 0 0 0 0 0 -0 -0 -0 -0 0 0 0 0 -0 0 0 0 0 0 0 0 0 0 0 0 -0 -0 nan
nan -0 0 0 0 0 -0 -0 -0 -0 -0 -0 -0 -0 -0 0 0 0 0 0 0 0 0 0 0 -0 -0 -0 -0 0 0 -0 -0 -0 -0 -0 0 0 0 0 -0 -0 -0 0 0 0 0 0 nan
nan -0 -0 0 0 -0 0 -0 0 -0 -0 -0 -0 -0 -0 -0 -0 0 0 0 0 0 0 0 -0 -0 -0 -0 -0 -0 -0 0 -0 -0 -0 -0 0 0 0 0 0 0 0 0 0 0 0 0 nan
nan -0 -0 -0 0 -0 0 0 -0 -0 -0 -0 -0 -0 -0 -0 -0 -0 0 -0 -0 -0 0 -0 0 0 -0 -0 0 0 -0 0 0 -0 -0 -0 -0 -0 -0 -0 0 -0 -0 -0 -0 -0 -0 0 nan
nan 0 0 0 0 -0 -0 0 0 -0 -0 -0 -0 -0 -0 -0 -0 -0 -0 -0 -0 -0 0 0 0 0 -0 -0 -0 -0 -0 -0 -0 -0 -0 -0 -0 -0 -0 -0 -0 -0 -0 -0 -0 -0 -0 -0 nan
nan 0 -0 0 0 -0 -0 0 0 0 -0 -0 -0 -0 -0 -0 -0 -0 -0 -0 -0 -0 0 0 -0 -0 -0 -0 -0 -0 -0 -0 -0 0 -0 -0 -0 -0 -0 -0 -0 -0 -0 -0 -0 -0 -0 -0 nan
nan -0 0 -0 0 -0 -0 -0 0 -0 -0 -0 0 0 -0 -0 -0 -0 -0 -0 0 0 0 0 -0 -0 -0 -0 -0 -0 -0 -0 -0 -0 -0 -0 -0 -0 -0 -0 -0 -0 0 -0 -0 -0 -0 -0 nan
nan -0 0 0 0 0 0 0 -0 -0 -0 0 0 0 0 -0 -0 -0 -0 0 -0 0 0 0 -0 0 -0 -0 -0 -0 -0 -0 0 0 0 -0 -0 -0 -0 -0 -0 -0 -0 0 0 -0 -0 -0 nan
nan -0 0 -0 -0 -0 -0 -0 -0 -0 0 0 0 0 0 -0 0 -0 -0 -0 -0 -0 0 0 -0 -0 -0 -0 -0 0 0 0 0 0 0 0 0 -0 -0 -0 -0 -0 -0 -0 0 0 -0 -0 nan
nan -0 -0 -0 -0 0 0 -0 -0 -0 0 0 0 0 0 0 0 -0 -0 -0 -0 0 0 -0 0 -0 -0 -0 -0 0 0 0 0 0 0 0 0 0 0 0 0 0 0 -0 0 0 0 -0 nan
nan 0 -0 0 -0 -0 0 -0 0 -0 -0 -0 -0 0 0 0 0 0 0 0 -0 0 0 -0 0 0 -0 -0 -0 -0 -0 -0 -0 0 0 0 0 0 0 0 0 0 0 0 0 0 0 0 nan
nan 0 -0 -0 -0 -0 -0 -0 0 -0 -1 -1 -0 -0 0 0 1 0 0 -0 -0 0 0 0 0 -0 -0 -0 -0 -0 -0 -0 -0 -0 -0 -0 -0 0 0 0 0 0 0 0 0 0 0 0 nan
nan -0 0 -0 -0 -0 -0 -0 0 -0 -0 -0 -0 -0 0 1 0 -0 -0 -0 0 0 0 0 0 0 0 -0 0 -0 -0 -0 0 0 -0 0 -0 -0 -0 -0 -0 -0 -0 -0 0 0 0 0 nan
nan 0 0 0 0 -0 -0 -0 -0 0 -0 -0 0 0 0 0 -0 -0 -0 0 1 0 0 0 0 0 0 0 0 0 0 0 0 0 0 0 0 0 0 -0 0 1 0 -0 -1 -0 0 0 nan
nan -0 0 0 -0 -0 0 0 -0 0 -0 0 1 1 0 0 0 0 -0 -0 -0 0 0 0 0 0 0 0 -0 -0 -0 -0 0 0 0 0 -0 -0 -0 0 -0 0 0 0 1 0 -0 -0 nan
nan 0 -0 -0 0 0 -0 0 0 -0 0 0 0 0 0 0 0 0 0 -0 -0 0 0 0 0 0 0 -0 -0 -0 -0 -0 -1 -0 -1 -0 -0 0 0 -0 -0 -0 -1 -1 -0 0 1 1 nan
nan -0 -0 -0 -0 -0 0 0 -0 -0 0 -0 0 0 0 0 0 -0 0 0 0 0 0 0 0 -0 -0 -0 -0 -0 -0 -1 -1 -1 -1 -1 -0 -0 0 0 0 -0 -0 -1 -1 -0 1 1 nan
nan 0 -0 0 0 0 0 0 -0 0 -0 -0 -0 -0 -0 -0 -0 -0 -0 0 0 0 0 -0 -0 -0 -0 -0 -0 -0 -0 -0 -0 -1 -1 -1 -1 -0 -0 -0 -0 -0 -0 -1 -1 -0 1 1 nan
nan 0 -0 0 0 -0 -0 -0 0 -0 -0 -0 -0 -0 -0 -0 -0 -0 -0 0 0 0 0 -0 -0 -0 -0 -0 -0 -1 -1 -1 -1 -1 -1 -1 -1 -1 -1 -0 -0 -1 -1 -1 -1 0 1 1 nan
nan 0 -0 0 -0 0 -0 -0 0 -0 -0 -0 -0 -0 -0 -0 -0 -0 -0 -0 0 -0 -0 -0 -0 -0 -0 -0 -0 -0 -0 -1 -1 -1 -2 -2 -1 -1 -0 -1 -1 -1 -1 -1 -0 0 0 0 nan
nan -0 0 -0 -0 -0 -0 -0 -0 -0 -0 -0 -0 -0 0 -0 -0 -0 -0 -0 -0 -0 -0 -0 -0 -1 -1 -0 -0 0 -0 -1 -1 -1 -1 -1 -1 -0 -0 -0 -0 -0 -0 -0 -0 -0 0 0 nan
nan -0 -0 -1 0 -0 -0 0 -0 0 -0 -0 -0 0 -0 0 0 0 -0 -0 -0 -0 -0 -1 -0 0 -1 -1 -1 -1 -1 -1 -1 -1 -2 -1 -0 0 0 0 -0 -0 0 0 -0 -1 -0 0 nan
nan -0 -0 -0 0 -0 -0 -0 -0 0 -0 -0 -0 -0 0 0 -0 -0 -0 -0 0 0 -0 -0 -0 -0 -0 -0 -0 -0 -0 -1 -1 -1 -1 -1 0 0 0 -0 0 0 -0 0 -0 -1 -1 -0 nan
nan -0 -0 -0 0 0 -0 -0 0 0 0 0 0 0 -0 -0 -0 -0 -0 -0 0 0 -0 -0 0 -0 -0 -0 0 -0 -0 -0 -1 -1 -1 -0 0 0 0 0 0 0 -0 0 0 0 -0 -0 nan
nan nan nan nan nan nan nan nan nan nan nan nan nan nan nan nan nan nan nan nan nan nan nan nan nan nan nan nan nan nan nan nan nan nan nan nan nan nan nan nan nan nan nan nan nan nan nan nan nan
Wind_Speed
6 4 2 1 2 3 3 2 2 4 2 3 6 5 7 5 1 3 13 8 4 8 12 11 9 7 7 6 5 4 3 4 3 3 4 5 7 10 10 10 10 11 10 15 20 21 20 16 10
5 4 3 2 4 7 3 2 3 3 11 9 9 6 4 4 5 14 13 12 11 13 14 13 13 12 9 8 5 4 4 4 3 1 1 3 6 9 9 10 11 14 17 20 21 18 13 7 7
5 4 2 3 3 5 5 2 8 10 4 3 5 7 4 6 12 14 14 14 14 15 16 15 15 14 11 9 7 6 5 3 2 2 3 4 8 9 11 13 14 15 15 13 11 11 6 6 7
3 3 5 6 7 1 2 7 9 7 3 4 9 8 6 5 11 11 14 14 14 15 16 16 14 12 9 7 5 3 3 3 4 4 4 5 7 8 9 9 10 11 10 8 7 7 8 10 10
3 3 5 7 6 3 2 4 7 3 2 4 3 5 5 8 10 14 14 14 14 16 17 15 13 10 7 5 4 2 2 2 2 3 5 7 8 7 7 7 8 8 8 7 7 7 8 9 11
4 4 6 9 7 2 4 4 4 3 5 7 8 5 3 11 14 14 13 14 14 14 14 14 11 9 8 5 3 3 3 4 4 4 6 6 6 7 7 9 10 12 12 13 12 10 10 11 11
6 4 3 5 7 3 4 5 7 6 6 4 10 4 7 14 14 13 13 14 15 13 11 9 8 7 6 4 2 1 2 4 4 5 6 6 8 8 9 9 10 11 11 11 11 12 13 13 12
6 5 4 2 5 3 2 4 6 5 3 11 9 5 6 19 17 16 14 14 13 10 8 6 4 4 5 6 6 5 2 0 2 2 4 5 7 8 8 9 10 11 13 14 14 14 14 14 13
4 4 3 5 6 4 3 4 3 4 8 5 6 9 9 20 20 17 16 15 12 10 8 5 1 3 5 6 7 7 6 3 2 3 5 6 6 7 8 9 10 12 14 16 17 17 16 14 12
4 4 4 2 2 3 3 2 5 4 3 4 7 8 15 22 20 19 18 13 10 9 7 3 1 3 5 6 6 5 6 5 4 5 6 8 9 9 9 10 12 14 16 16 17 18 17 15 12
3 4 6 3 5 5 3 3 2 7 2 7 10 11 18 22 23 20 17 13 9 9 7 3 2 3 3 3 5 4 5 5 6 7 8 9 11 11 12 14 18 19 20 20 20 19 19 17 14
5 3 4 5 5 4 4 3 2 7 5 6 8 12 20 24 20 20 17 13 9 8 7 6 4 2 3 5 7 7 7 8 8 9 10 11 12 13 15 17 20 20 21 21 20 20 20 19 18
5 1 4 3 5 3 3 2 2 9 10 9 10 14 19 19 14 15 12 13 10 11 11 9 6 1 4 6 7 6 7 8 10 11 12 13 13 14 17 19 19 20 20 20 20 20 19 17 16
3 5 4 5 1 3 1 1 1 0 1 10 11 17 20 19 16 15 17 15 11 10 11 11 6 1 5 6 6 7 8 9 10 12 12 13 14 16 18 18 18 18 19 19 20 19 18 18 17
4 4 2 13 5 4 4 2 4 4 7 2 7 15 22 23 18 16 14 14 12 8 11 10 6 1 3 5 6 8 10 11 12 13 13 13 14 16 18 19 19 19 19 19 19 18 18 18 18
5 5 3 5 9 5 3 5 7 7 8 11 11 9 21 25 22 19 16 14 14 13 13 11 6 1 3 5 7 9 11 13 13 15 16 17 18 18 19 19 20 19 20 21 21 21 22 21 19
8 2 4 5 5 5 4 6 6 19 13 13 9 5 16 23 24 21 18 15 11 10 14 11 6 2 4 2 7 8 11 13 13 13 14 15 17 19 22 24 26 25 25 25 24 23 23 23 23
1 1 1 3 5 5 3 7 12 15 4 5 6 2 12 18 17 14 10 11 10 12 14 11 7 5 2 5 9 10 13 14 17 18 20 20 22 24 26 29 31 31 32 32 30 30 30 28 26
2 2 2 3 2 4 3 5 9 13 13 12 9 8 8 8 7 6 7 10 12 15 14 11 7 5 3 8 10 13 17 18 20 21 23 25 25 25 26 29 33 36 39 41 41 38 36 35 33
2 3 1 3 1 1 5 8 6 13 9 9 11 13 12 13 11 11 11 12 10 8 9 8 9 10 11 13 16 18 19 19 20 21 24 25 27 29 34 35 35 35 37 38 40 45 45 44 41
1 2 2 3 6 2 3 3 9 5 8 11 12 13 14 14 13 12 11 10 9 8 9 8 8 10 12 14 14 14 15 19 23 28 32 33 34 34 33 33 34 35 34 34 34 39 45 50 46
2 2 3 3 1 1 4 3 6 7 5 6 6 8 9 8 8 6 5 5 6 6 6 6 7 7 7 11 15 20 24 27 28 30 32 33 34 36 37 37 36 36 36 38 37 37 39 42 47
2 2 1 1 3 2 6 1 3 5 6 6 8 5 6 5 3 2 3 4 3 3 3 2 4 7 13 19 24 27 28 28 31 35 39 39 40 38 37 36 34 34 34 35 36 37 38 38 41
4 2 3 2 2 1 1 2 2 4 5 5 4 11 7 3 3 3 2 7 9 8 4 1 8 16 23 27 29 28 28 31 34 37 40 41 41 40 37 33 30 27 27 26 26 24 20 15 17
8 3 1 2 3 1 2 1 2 6 6 6 7 9 10 8 7 3 4 4 3 2 8 14 20 25 28 32 31 29 28 29 34 38 41 41 39 36 31 27 25 23 21 19 12 4 9 8 4
4 3 2 1 2 4 3 1 2 4 8 8 9 9 12 13 12 9 5 6 9 13 18 22 25 27 34 32 28 26 27 31 38 41 40 39 35 30 25 23 18 14 10 4 5 8 9 9 13
2 5 1 5 1 2 3 1 6 4 9 10 7 8 10 11 12 12 12 15 17 19 24 26 28 30 23 23 23 25 29 35 39 40 37 31 24 20 17 14 9 6 5 6 8 14 17 24 18
4 4 1 3 3 3 4 4 3 3 4 2 3 3 7 10 15 18 19 19 20 20 19 21 20 19 21 24 25 27 32 35 38 34 28 21 17 10 8 9 7 3 3 4 7 11 13 12 11
2 2 5 3 1 1 3 5 4 4 3 2 7 4 4 9 15 19 19 19 21 18 20 23 22 21 23 25 25 31 34 35 30 27 21 15 10 9 8 9 11 12 17 20 15 12 13 17 16
1 3 3 2 2 1 1 8 3 6 2 5 8 8 6 12 18 21 20 20 15 12 22 24 19 19 22 24 30 32 29 26 26 21 18 10 10 7 9 14 19 23 20 14 16 18 18 19 21
Wind_Direction
140 133 122 136 112 89 100 63 300 114 96 59 110 118 106 58 88 100 137 170 129 127 128 129 125 130 146 170 169 155 130 126 142 149 165 175 202 221 227 238 247 261 264 295 308 308 306 300 271
127 141 128 103 100 105 71 347 139 86 127 106 89 111 82 87 113 136 147 139 130 129 127 132 128 135 136 130 119 122 115 119 136 163 290 230 245 254 255 249 260 274 281 292 295 294 293 276 252
136 143 135 90 88 99 114 148 137 134 88 119 118 81 102 117 130 140 144 129 126 124 122 121 117 113 104 91 87 91 103 161 198 252 251 271 263 263 264 271 281 284 286 282 274 270 276 272 262
172 129 72 85 87 36 117 149 152 145 102 93 116 90 80 126 135 145 141 137 130 119 114 107 103 101 105 110 117 136 150 197 223 241 256 264 263 261 266 276 283 285 287 286 290 296 292 291 281
139 72 68 86 78 98 68 144 155 155 115 108 105 113 99 152 142 142 137 132 126 123 119 116 109 105 95 72 46 10 333 303 283 283 292 297 307 308 301 292 292 295 297 300 314 316 306 302 301
85 76 100 107 108 96 107 142 152 147 110 128 108 104 111 151 158 145 137 136 128 124 125 119 106 87 69 50 11 334 283 262 270 282 294 296 303 314 325 330 335 335 333 330 327 319 314 309 310
103 84 113 123 124 127 161 168 161 148 145 180 145 93 143 152 153 149 147 144 145 145 130 118 92 80 63 43 17 303 262 275 286 294 305 306 308 314 316 322 334 336 333 330 329 323 320 317 313
103 87 117 143 164 143 153 130 129 146 136 133 140 153 169 163 159 159 153 154 162 150 126 122 97 73 49 35 38 41 40 277 266 293 313 308 306 306 306 315 320 331 332 325 323 321 318 314 309
116 82 121 161 164 133 155 143 145 127 140 157 182 167 157 167 168 170 166 168 174 156 147 135 125 57 31 30 35 44 40 36 348 304 298 294 291 289 292 309 314 318 319 319 316 313 312 311 305
79 92 144 192 113 96 89 97 139 156 134 159 166 182 166 175 178 185 188 178 176 173 163 159 127 15 10 39 22 20 19 16 355 335 324 305 295 295 292 305 314 314 313 309 307 306 305 304 304
49 112 172 131 132 124 104 97 135 143 228 196 191 182 171 183 190 193 198 195 185 187 195 209 238 346 17 38 11 343 343 339 333 326 323 320 311 303 298 306 312 313 314 313 311 308 306 304 299
89 95 90 138 129 110 139 163 167 203 229 229 215 197 179 189 198 205 206 207 212 209 217 234 233 6 44 33 10 338 330 326 318 311 309 309 306 303 299 301 305 307 309 310 309 308 307 304 302
86 107 88 81 153 135 147 211 242 252 251 238 215 206 194 192 197 205 207 213 231 228 232 231 223 312 35 26 14 351 334 326 317 312 307 302 299 296 296 300 302 305 307 306 306 305 306 305 305
85 92 75 26 73 36 323 271 309 174 89 218 218 209 203 198 201 205 214 220 226 228 231 225 215 2 25 30 24 5 353 336 326 320 313 306 304 303 303 303 303 306 304 303 303 301 302 303 302
65 84 80 30 1 42 353 264 223 330 276 285 235 214 206 205 205 210 220 230 239 239 221 206 211 14 35 69 32 15 4 353 345 337 331 324 316 314 310 309 308 311 305 305 305 301 299 299 298
39 56 20 23 10 22 44 286 295 7 299 284 322 238 212 206 210 216 226 240 251 235 212 196 200 166 102 64 32 12 6 1 360 354 349 342 332 326 322 317 315 313 305 301 303 301 299 297 293
24 70 11 332 49 353 38 277 309 326 296 282 299 270 214 206 213 222 232 243 240 220 201 198 192 166 144 78 356 345 344 343 337 335 332 328 324 324 319 317 316 312 304 298 292 289 287 289 288
39 55 285 284 352 347 350 295 321 351 340 309 336 269 196 203 214 221 229 233 221 204 199 207 197 188 174 327 324 331 338 337 330 332 329 322 319 318 317 316 315 309 299 292 289 287 285 281 279
147 161 242 255 202 331 356 318 347 358 43 46 62 86 145 169 211 245 245 238 221 208 209 206 223 198 260 292 298 316 320 317 319 319 318 316 315 313 310 305 301 301 296 292 287 280 274 273 274
130 193 246 253 321 308 356 24 348 24 36 49 69 82 105 117 118 117 108 113 127 157 180 209 223 234 261 286 298 304 302 303 303 303 307 309 306 304 302 298 295 291 289 285 278 277 275 271 268
19 106 27 302 337 81 335 43 17 359 39 57 71 90 103 111 115 115 109 117 125 155 190 218 246 270 288 305 314 317 314 311 312 310 312 313 312 311 307 303 299 297 295 291 287 275 270 269 268
32 64 292 253 255 182 348 142 23 0 29 26 70 97 94 92 99 106 127 165 193 211 229 262 288 316 344 345 339 335 330 324 318 317 317 317 315 310 306 302 300 298 296 292 289 284 278 275 266
242 312 269 191 156 140 5 101 4 1 24 0 6 32 54 62 57 359 295 262 250 183 177 107 32 351 343 337 329 323 323 325 325 324 321 317 316 315 311 306 302 299 296 292 288 283 277 275 271
313 89 66 77 112 136 286 340 57 19 338 343 31 43 43 41 17 358 74 112 115 112 112 15 340 334 333 333 332 331 331 327 324 320 318 319 319 317 312 308 307 308 311 308 302 290 273 253 243
18 47 357 11 16 234 24 357 62 19 19 23 50 36 22 10 4 45 121 124 95 19 347 337 332 334 336 331 330 330 326 323 320 322 326 326 321 316 309 311 315 315 313 316 312 241 176 162 158
9 41 85 293 330 319 333 303 123 85 53 53 36 60 68 64 64 65 56 13 347 336 335 336 335 333 321 312 312 312 316 320 325 328 327 322 314 304 304 312 314 310 303 308 325 293 294 299 309
16 47 139 104 85 292 313 229 256 271 26 30 65 64 46 35 26 11 351 334 327 329 323 321 312 311 322 324 324 323 325 327 328 326 326 322 301 294 297 296 295 284 280 291 296 303 301 293 315
69 126 30 32 19 309 305 274 248 208 10 77 134 53 29 10 0 351 343 328 306 298 302 311 316 314 325 331 326 322 324 326 327 326 325 313 299 291 281 282 266 262 324 310 322 336 334 338 337
23 60 65 107 122 223 299 268 207 186 211 220 222 220 336 340 341 337 325 313 300 294 316 320 315 316 324 323 318 323 326 326 328 329 326 315 281 267 265 263 264 282 300 305 328 325 323 313 315
142 132 99 118 219 242 357 273 297 197 316 308 295 230 292 317 328 332 328 327 315 298 310 315 319 321 321 322 324 325 326 330 332 334 322 291 263 268 274 273 274 299 319 328 304 312 310 311 311
Height
1519 1521 1522 1524 1527 1530 1542 1540 1540 1540 1541 1543 1542 1543 1546 1548 1547 1551 1553 1554 1556 1557 1557 1558 1559 1561 1561 1564 1566 1567 1566 1565 1565 1566 1564 1562 1564 1564 1563 1564 1564 1567 1566 1565 1563 1560 1559 1559 1558
1519 1521 1521 1523 1530 1534 1541 1540 1539 1540 1543 1544 1543 1546 1546 1550 1549 1551 1553 1553 1554 1556 1558 1560 1561 1562 1563 1564 1565 1567 1567 1567 1567 1566 1565 1563 1563 1564 1562 1565 1565 1565 1565 1563 1562 1558 1556 1556 1556
1520 1519 1524 1526 1536 1540 1541 1540 1540 1542 1542 1543 1545 1545 1545 1548 1550 1551 1553 1555 1556 1556 1558 1560 1560 1562 1564 1565 1567 1566 1565 1569 1567 1564 1565 1562 1564 1563 1563 1564 1563 1564 1562 1561 1559 1556 1555 1554 1553
1522 1522 1526 1527 1539 1543 1539 1539 1540 1542 1544 1542 1543 1546 1549 1549 1549 1551 1552 1554 1558 1558 1559 1560 1563 1564 1565 1564 1564 1566 1565 1566 1565 1565 1562 1562 1563 1561 1562 1561 1561 1561 1560 1559 1558 1555 1555 1553 1552
1520 1520 1528 1534 1540 1541 1541 1541 1542 1543 1542 1542 1542 1546 1550 1551 1551 1553 1554 1557 1559 1560 1560 1562 1563 1563 1564 1565 1565 1566 1566 1567 1566 1565 1564 1564 1563 1563 1563 1562 1561 1560 1559 1557 1555 1554 1553 1552 1550
1519 1522 1533 1539 1541 1543 1543 1543 1544 1545 1544 1544 1546 1547 1550 1551 1553 1554 1556 1557 1559 1562 1563 1563 1565 1565 1565 1565 1566 1565 1566 1566 1564 1564 1564 1562 1562 1561 1561 1560 1560 1559 1558 1556 1555 1554 1552 1551 1548
1519 1528 1542 1543 1543 1543 1541 1542 1544 1545 1545 1545 1545 1548 1551 1552 1556 1557 1557 1559 1560 1563 1564 1565 1565 1566 1565 1566 1566 1566 1565 1564 1563 1564 1563 1563 1562 1561 1561 1560 1560 1558 1557 1556 1554 1553 1552 1550 1548
1521 1528 1541 1543 1542 1542 1541 1543 1542 1543 1544 1543 1545 1547 1549 1550 1554 1556 1557 1558 1561 1563 1564 1565 1566 1566 1566 1566 1565 1565 1564 1563 1563 1563 1562 1562 1561 1560 1560 1560 1559 1558 1556 1555 1553 1552 1551 1549 1547
1522 1529 1540 1541 1539 1539 1540 1540 1541 1544 1543 1543 1545 1544 1545 1547 1552 1555 1556 1556 1561 1561 1563 1565 1566 1566 1566 1565 1564 1563 1563 1563 1562 1562 1561 1560 1560 1560 1559 1559 1558 1557 1555 1554 1553 1551 1550 1548 1547
1523 1531 1536 1536 1536 1539 1539 1540 1541 1544 1543 1543 1542 1545 1544 1547 1551 1556 1559 1558 1559 1562 1564 1564 1564 1566 1565 1564 1564 1563 1563 1562 1562 1561 1560 1560 1559 1559 1558 1557 1556 1555 1553 1552 1551 1549 1548 1547 1545
1524 1531 1532 1532 1534 1536 1538 1539 1540 1540 1543 1540 1542 1544 1545 1550 1553 1553 1558 1558 1559 1562 1563 1563 1564 1565 1564 1564 1563 1563 1562 1561 1561 1560 1559 1558 1558 1557 1556 1555 1554 1552 1550 1549 1548 1546 1545 1544 1543
1532 1531 1532 1534 1535 1535 1537 1539 1538 1540 1539 1539 1541 1542 1540 1548 1550 1554 1556 1557 1558 1560 1562 1563 1564 1564 1563 1563 1562 1561 1560 1560 1559 1559 1558 1557 1556 1555 1555 1553 1552 1550 1548 1547 1545 1544 1542 1541 1540
1529 1533 1532 1535 1535 1535 1535 1536 1537 1539 1538 1539 1540 1543 1542 1543 1549 1553 1554 1557 1558 1559 1560 1561 1563 1563 1562 1561 1560 1560 1559 1558 1557 1556 1555 1555 1554 1553 1552 1550 1549 1547 1545 1543 1541 1540 1539 1538 1538
1529 1530 1532 1535 1535 1534 1535 1537 1537 1537 1537 1538 1539 1539 1539 1542 1547 1550 1553 1554 1556 1557 1558 1561 1562 1562 1562 1560 1560 1559 1558 1556 1555 1554 1553 1552 1551 1551 1549 1548 1546 1545 1542 1541 1539 1537 1536 1535 1534
1529 1531 1534 1535 1536 1536 1536 1537 1536 1536 1537 1537 1536 1536 1538 1542 1545 1547 1550 1552 1554 1555 1557 1559 1561 1561 1560 1559 1559 1558 1556 1555 1554 1553 1552 1551 1550 1549 1547 1545 1544 1542 1540 1538 1536 1535 1533 1532 1532
1535 1535 1542 1539 1537 1538 1538 1539 1533 1535 1535 1532 1532 1533 1536 1539 1542 1545 1548 1549 1551 1553 1555 1558 1559 1559 1558 1558 1557 1557 1555 1554 1553 1552 1551 1550 1548 1547 1545 1543 1541 1540 1538 1536 1535 1533 1531 1529 1528
1542 1546 1547 1543 1543 1542 1540 1538 1533 1533 1530 1530 1530 1529 1531 1535 1538 1542 1545 1547 1549 1551 1553 1555 1557 1557 1557 1557 1556 1555 1554 1553 1552 1551 1549 1548 1546 1545 1542 1540 1538 1536 1534 1532 1531 1530 1528 1526 1524
1549 1549 1550 1550 1544 1542 1543 1539 1535 1530 1526 1528 1526 1525 1527 1531 1536 1541 1543 1545 1547 1548 1551 1554 1555 1555 1555 1554 1553 1552 1551 1550 1549 1548 1546 1544 1541 1539 1537 1534 1532 1531 1529 1527 1525 1524 1523 1522 1520
1547 1549 1551 1548 1547 1544 1544 1540 1534 1532 1527 1526 1526 1525 1528 1533 1537 1540 1541 1542 1544 1547 1550 1552 1553 1554 1553 1551 1550 1550 1549 1548 1546 1544 1542 1539 1536 1534 1531 1528 1525 1523 1520 1519 1519 1518 1515 1513 1514
1545 1549 1549 1546 1545 1543 1542 1538 1537 1533 1533 1531 1530 1530 1532 1535 1538 1540 1541 1543 1544 1548 1550 1552 1552 1551 1550 1549 1547 1546 1545 1543 1542 1540 1538 1535 1533 1529 1525 1521 1517 1514 1510 1508 1508 1507 1507 1505 1505
1548 1546 1548 1549 1546 1545 1543 1538 1538 1537 1536 1535 1535 1536 1537 1539 1540 1542 1543 1545 1547 1548 1549 1549 1549 1548 1547 1546 1545 1543 1541 1539 1537 1535 1532 1529 1525 1521 1517 1514 1510 1507 1505 1500 1498 1496 1495 1494 1494
1549 1547 1548 1549 1549 1545 1548 1544 1541 1543 1539 1538 1539 1539 1540 1542 1544 1545 1546 1546 1547 1547 1547 1548 1547 1546 1544 1543 1542 1539 1537 1535 1532 1529 1525 1521 1518 1514 1511 1506 1502 1497 1495 1491 1489 1487 1484 1483 1483
1548 1548 1547 1547 1547 1547 1546 1544 1544 1544 1542 1542 1543 1543 1543 1545 1546 1546 1545 1545 1545 1546 1545 1545 1545 1545 1543 1541 1539 1537 1534 1530 1526 1522 1517 1514 1510 1506 1501 1496 1492 1488 1484 1481 1478 1476 1473 1472 1471
1546 1546 1547 1550 1549 1551 1554 1554 1552 1547 1549 1546 1544 1546 1546 1546 1547 1547 1546 1546 1545 1545 1544 1544 1544 1543 1541 1538 1536 1532 1528 1523 1520 1516 1511 1507 1503 1498 1495 1490 1486 1480 1476 1472 1469 1466 1462 1462 1463
1546 1547 1551 1552 1555 1553 1557 1555 1552 1550 1551 1550 1549 1549 1548 1548 1546 1546 1547 1547 1546 1545 1545 1543 1541 1538 1536 1534 1531 1529 1526 1521 1516 1512 1507 1501 1495 1492 1488 1484 1480 1475 1470 1466 1466 1465 1463 1461 1462
1554 1555 1561 1566 1566 1563 1559 1556 1554 1553 1551 1550 1550 1550 1550 1550 1549 1549 1549 1548 1547 1545 1542 1539 1537 1534 1532 1531 1528 1526 1523 1518 1513 1507 1501 1495 1490 1485 1481 1479 1477 1474 1471 1469 1466 1466 1463 1461 1460
1555 1561 1565 1575 1601 1576 1562 1556 1553 1551 1550 1549 1550 1550 1550 1550 1549 1549 1548 1546 1544 1541 1538 1536 1535 1535 1532 1528 1525 1522 1517 1512 1506 1500 1494 1487 1482 1478 1476 1474 1472 1473 1469 1467 1465 1464 1461 1459 1458
1556 1563 1564 1570 1577 1576 1559 1560 1547 1550 1550 1551 1550 1550 1550 1549 1547 1546 1545 1543 1542 1539 1537 1535 1532 1529 1527 1524 1520 1516 1510 1504 1499 1492 1487 1481 1477 1475 1474 1473 1471 1468 1465 1463 1461 1459 1459 1457 1455
1562 1564 1571 1572 1578 1577 1582 1555 1546 1547 1548 1548 1548 1549 1548 1547 1546 1545 1543 1540 1536 1535 1532 1530 1527 1525 1522 1518 1514 1509 1503 1496 1490 1484 1480 1478 1476 1473 1472 1470 1467 1465 1462 1459 1457 1457 1456 1456 1453
1563 1566 1568 1573 1578 1578 1582 1560 1544 1545 1546 1547 1546 1545 1546 1545 1543 1540 1537 1534 1532 1531 1529 1526 1523 1520 1516 1512 1507 1502 1496 1492 1487 1481 1477 1474 1472 1469 1468 1466 1463 1461 1458 1456 1457 1454 1452 1451 1449